Regional Weather Roundup
Issued by NWS

Home | Current Version | Previous Version | Graphics & Text | Print | Product List | Glossary On
Versions: 1 2 3 4 5 6 7 8 9 10 11 12 13 14 15 16 17 18 19 20 21 22 23 24 25 26 27 28 29 30 31 32 33 34 35 36 37 38 39 40
000
ASUS45 KBOI 270310
RWRID
WEATHER ROUNDUP FOR IDAHO
NATIONAL WEATHER SERVICE BOISE ID
800 PM MST FRI DEC 26 2014

NOTE: "FAIR" INDICATES FEW OR NO CLOUDS BELOW 12000 FEET
WITH NO SIGNIFICANT WEATHER AND/OR OBSTRUCTIONS TO VISIBILITY

IDZ012-014-270400-
SOUTHWEST IDAHO


CITY           SKY/WX    TMP DP  RH WIND       PRES   REMARKS
BOISE          CLEAR     29  22  75 NW3       30.26R
CALDWELL       CLEAR     30  19  64 SW5       30.30R WCI  25
MOUNTAIN HOME  CLEAR     28  23  84 NW10      30.25R WCI  18
$$

IDZ016-017-270400-
SOUTHCENTRAL IDAHO


CITY           SKY/WX    TMP DP  RH WIND       PRES   REMARKS
BURLEY         CLOUDY    26  21  81 SW7       30.19R WCI  18
JEROME         CLEAR     23  20  88 S5        30.20R WCI  17
TWIN FALLS     CLEAR     25  19  78 SW13      30.20R WCI  14
$$

IDZ019>023-270400-
SOUTHEAST IDAHO


CITY           SKY/WX    TMP DP  RH WIND       PRES   REMARKS
IDAHO FALLS    CLOUDY    17  14  88 SW12      30.15S WCI   4
POCATELLO      CLOUDY    19  13  77 S9        30.19R WCI   8
REXBURG        CLOUDY    13  11  92 CALM      30.14R
$$

IDZ006-010-011-018-031-032-270400-
CENTRAL IDAHO MOUNTAINS


CITY           SKY/WX    TMP DP  RH WIND       PRES   REMARKS
MCCALL         CLOUDY    23  14  68 N5        30.17R WCI  17
HAILEY         PTCLDY    10   3  72 W9        30.16R WCI  -2
STANLEY          N/A      4  -1  80 CALM      30.11R
SALMON         CLOUDY    19  19 100 CALM      30.19R
CHALLIS        CLEAR      7   1  76 CALM      30.16R
$$

IDZ002-004-006-007-026-270400-
NORTHERN IDAHO


CITY           SKY/WX    TMP DP  RH WIND       PRES   REMARKS
LEWISTON       CLEAR     33  26  75 CALM      30.32R
LOWELL           N/A     33  31  92 CALM      30.35S
COEUR D`ALENE  CLOUDY    27  25  93 CALM      30.26S VSB 1/4
MULLAN PASS    CLOUDY    17  12  80 VRB6      30.07S WCI   9
$$



USA.gov is the U.S. government's official web portal to all federal, state and local government web resources and services.